Year,Month,Day,Hour,Minute,Value (Times are PST for temperature in C)
2014,05,06,00,00,8.20
2014,05,06,00,01,8.20
2014,05,06,00,02,8.20
2014,05,06,00,03,8.30
2014,05,06,00,04,8.30
2014,05,06,00,05,8.30
2014,05,06,00,06,8.30
2014,05,06,00,07,8.30
2014,05,06,00,08,8.30
2014,05,06,00,09,8.30
2014,05,06,00,10,8.30
2014,05,06,00,11,8.30
2014,05,06,00,12,8.30
2014,05,06,00,13,8.30
2014,05,06,00,14,8.30
2014,05,06,00,15,8.30
2014,05,06,00,16,8.30
2014,05,06,00,17,8.20
2014,05,06,00,18,8.20
2014,05,06,00,19,8.20
2014,05,06,00,20,8.20
2014,05,06,00,21,8.20
2014,05,06,00,22,8.20
2014,05,06,00,23,8.20
2014,05,06,00,24,8.20
2014,05,06,00,25,8.20
2014,05,06,00,26,8.20
2014,05,06,00,27,8.10
2014,05,06,00,28,8.10
2014,05,06,00,29,8.10
2014,05,06,00,30,8.00
2014,05,06,00,31,8.00
2014,05,06,00,32,8.00
2014,05,06,00,33,7.90
2014,05,06,00,34,7.90
2014,05,06,00,35,7.90
2014,05,06,00,36,7.80
2014,05,06,00,37,7.80
2014,05,06,00,38,7.80
2014,05,06,00,39,7.80
2014,05,06,00,40,7.80
2014,05,06,00,41,7.80
2014,05,06,00,42,7.80
2014,05,06,00,43,7.70
2014,05,06,00,44,7.70
2014,05,06,00,45,7.70
2014,05,06,00,46,7.60
2014,05,06,00,47,7.60
2014,05,06,00,48,7.60
2014,05,06,00,49,7.50
2014,05,06,00,50,7.50
2014,05,06,00,51,7.50
2014,05,06,00,52,7.50
2014,05,06,00,53,7.50
2014,05,06,00,54,7.50
2014,05,06,00,55,7.40
2014,05,06,00,56,7.40
2014,05,06,00,57,7.40
2014,05,06,00,58,7.40
2014,05,06,00,59,7.40
2014,05,06,01,00,7.30
2014,05,06,01,01,7.30
2014,05,06,01,02,7.30
2014,05,06,01,03,7.30
2014,05,06,01,04,7.30
2014,05,06,01,05,7.30
2014,05,06,01,06,7.30
2014,05,06,01,07,7.30
2014,05,06,01,08,7.30
2014,05,06,01,09,7.30
2014,05,06,01,10,7.30
2014,05,06,01,11,7.30
2014,05,06,01,12,7.30
2014,05,06,01,13,7.30
2014,05,06,01,14,7.30
2014,05,06,01,15,7.30
2014,05,06,01,16,7.30
2014,05,06,01,17,7.20
2014,05,06,01,18,7.20
2014,05,06,01,19,7.20
2014,05,06,01,20,7.20
2014,05,06,01,21,7.20
2014,05,06,01,22,7.20
2014,05,06,01,23,7.10
2014,05,06,01,24,7.10
2014,05,06,01,25,7.10
2014,05,06,01,26,7.10
2014,05,06,01,27,7.10
2014,05,06,01,28,7.10
2014,05,06,01,29,7.00
2014,05,06,01,30,7.00
2014,05,06,01,31,7.00
2014,05,06,01,32,7.00
2014,05,06,01,33,6.90
2014,05,06,01,34,6.90
2014,05,06,01,35,6.90
2014,05,06,01,36,6.90
2014,05,06,01,37,6.90
2014,05,06,01,38,6.80
2014,05,06,01,39,6.80
2014,05,06,01,40,6.80
2014,05,06,01,41,6.80
2014,05,06,01,42,6.80
2014,05,06,01,43,6.80
2014,05,06,01,44,6.80
2014,05,06,01,45,6.80
2014,05,06,01,46,6.80
2014,05,06,01,47,6.80
2014,05,06,01,48,6.80
2014,05,06,01,49,6.70
2014,05,06,01,50,6.70
2014,05,06,01,51,6.70
2014,05,06,01,52,6.70
2014,05,06,01,53,6.70
2014,05,06,01,54,6.60
2014,05,06,01,55,6.60
2014,05,06,01,56,6.60
2014,05,06,01,57,6.60
2014,05,06,01,58,6.50
2014,05,06,01,59,6.50
2014,05,06,02,00,6.50
2014,05,06,02,01,6.40
2014,05,06,02,02,6.40
2014,05,06,02,03,6.40
2014,05,06,02,04,6.40
2014,05,06,02,05,6.40
2014,05,06,02,06,6.40
2014,05,06,02,07,6.40
2014,05,06,02,08,6.40
2014,05,06,02,09,6.40
2014,05,06,02,10,6.40
2014,05,06,02,11,6.40
2014,05,06,02,12,6.40
2014,05,06,02,13,6.40
2014,05,06,02,14,6.40
2014,05,06,02,15,6.30
2014,05,06,02,16,6.30
2014,05,06,02,17,6.30
2014,05,06,02,18,6.30
2014,05,06,02,19,6.30
2014,05,06,02,20,6.20
2014,05,06,02,21,6.20
2014,05,06,02,22,6.20
2014,05,06,02,23,6.20
2014,05,06,02,24,6.20
2014,05,06,02,25,6.20
2014,05,06,02,26,6.20
2014,05,06,02,27,6.20
2014,05,06,02,28,6.20
2014,05,06,02,29,6.10
2014,05,06,02,30,6.10
2014,05,06,02,31,6.10
2014,05,06,02,32,6.10
2014,05,06,02,33,6.00
2014,05,06,02,34,6.00
2014,05,06,02,35,6.00
2014,05,06,02,36,6.00
2014,05,06,02,37,6.00
2014,05,06,02,38,5.90
2014,05,06,02,39,5.90
2014,05,06,02,40,5.90
2014,05,06,02,41,5.90
2014,05,06,02,42,5.90
2014,05,06,02,43,5.90
2014,05,06,02,44,5.90
2014,05,06,02,45,5.90
2014,05,06,02,46,5.90
2014,05,06,02,47,5.90
2014,05,06,02,48,5.90
2014,05,06,02,49,5.90
2014,05,06,02,50,5.90
2014,05,06,02,51,5.90
2014,05,06,02,52,5.90
2014,05,06,02,53,5.90
2014,05,06,02,54,5.90
2014,05,06,02,55,5.90
2014,05,06,02,56,5.90
2014,05,06,02,57,5.90
2014,05,06,02,58,5.90
2014,05,06,02,59,6.00
2014,05,06,03,00,6.00
2014,05,06,03,01,6.00
2014,05,06,03,02,6.00
2014,05,06,03,03,6.00
2014,05,06,03,04,5.90
2014,05,06,03,05,5.90
2014,05,06,03,06,5.90
2014,05,06,03,07,5.90
2014,05,06,03,08,5.90
2014,05,06,03,09,5.90
2014,05,06,03,10,5.90
2014,05,06,03,11,5.90
2014,05,06,03,12,5.90
2014,05,06,03,13,5.90
2014,05,06,03,14,5.90
2014,05,06,03,15,5.90
2014,05,06,03,16,5.90
2014,05,06,03,17,5.90
2014,05,06,03,18,5.90
2014,05,06,03,19,5.90
2014,05,06,03,20,5.90
2014,05,06,03,21,5.80
2014,05,06,03,22,5.80
2014,05,06,03,23,5.80
2014,05,06,03,24,5.70
2014,05,06,03,25,5.70
2014,05,06,03,26,5.70
2014,05,06,03,27,5.60
2014,05,06,03,28,5.60
2014,05,06,03,29,5.60
2014,05,06,03,30,5.60
2014,05,06,03,31,5.60
2014,05,06,03,32,5.60
2014,05,06,03,33,5.60
2014,05,06,03,34,5.60
2014,05,06,03,35,5.60
2014,05,06,03,36,5.60
2014,05,06,03,37,5.60
2014,05,06,03,38,5.60
2014,05,06,03,39,5.60
2014,05,06,03,40,5.50
2014,05,06,03,41,5.50
2014,05,06,03,42,5.50
2014,05,06,03,43,5.50
2014,05,06,03,44,5.40
2014,05,06,03,45,5.40
2014,05,06,03,46,5.40
2014,05,06,03,47,5.40
2014,05,06,03,48,5.40
2014,05,06,03,49,5.40
2014,05,06,03,50,5.40
2014,05,06,03,51,5.40
2014,05,06,03,52,5.40
2014,05,06,03,53,5.40
2014,05,06,03,54,5.40
2014,05,06,03,55,5.40
2014,05,06,03,56,5.40
2014,05,06,03,57,5.40
2014,05,06,03,58,5.40
2014,05,06,03,59,5.40
2014,05,06,04,00,5.40
2014,05,06,04,01,5.40
2014,05,06,04,02,5.40
2014,05,06,04,03,5.40
2014,05,06,04,04,5.40
2014,05,06,04,05,5.40
2014,05,06,04,06,5.40
2014,05,06,04,07,5.40
2014,05,06,04,08,5.50
2014,05,06,04,09,5.50
2014,05,06,04,10,5.50
2014,05,06,04,11,5.60
2014,05,06,04,12,5.60
2014,05,06,04,13,5.60
2014,05,06,04,14,5.60
2014,05,06,04,15,5.60
2014,05,06,04,16,5.60
2014,05,06,04,17,5.60
2014,05,06,04,18,5.60
2014,05,06,04,19,5.60
2014,05,06,04,20,5.60
2014,05,06,04,21,5.60
2014,05,06,04,22,5.60
2014,05,06,04,23,5.60
2014,05,06,04,24,5.70
2014,05,06,04,25,5.70
2014,05,06,04,26,5.70
2014,05,06,04,27,5.70
2014,05,06,04,28,5.70
2014,05,06,04,29,5.60
2014,05,06,04,30,5.60
2014,05,06,04,31,5.60
2014,05,06,04,32,5.60
2014,05,06,04,33,5.60
2014,05,06,04,34,5.60
2014,05,06,04,35,5.60
2014,05,06,04,36,5.60
2014,05,06,04,37,5.60
2014,05,06,04,38,5.60
2014,05,06,04,39,5.60
2014,05,06,04,40,5.60
2014,05,06,04,41,5.60
2014,05,06,04,42,5.60
2014,05,06,04,43,5.60
2014,05,06,04,44,5.60
2014,05,06,04,45,5.60
2014,05,06,04,46,5.60
2014,05,06,04,47,5.60
2014,05,06,04,48,5.60
2014,05,06,04,49,5.60
2014,05,06,04,50,5.60
2014,05,06,04,51,5.60
2014,05,06,04,52,5.60
2014,05,06,04,53,5.60
2014,05,06,04,54,5.60
2014,05,06,04,55,5.60
2014,05,06,04,56,5.60
2014,05,06,04,57,5.60
2014,05,06,04,58,5.60
2014,05,06,04,59,5.60
2014,05,06,05,00,5.60
2014,05,06,05,01,5.60
2014,05,06,05,02,5.60
2014,05,06,05,03,5.60
2014,05,06,05,04,5.60
2014,05,06,05,05,5.60
2014,05,06,05,06,5.60
2014,05,06,05,07,5.60
2014,05,06,05,08,5.60
2014,05,06,05,09,5.60
2014,05,06,05,10,5.60
2014,05,06,05,11,5.60
2014,05,06,05,12,5.60
2014,05,06,05,13,5.60
2014,05,06,05,14,5.60
2014,05,06,05,15,5.60
2014,05,06,05,16,5.60
2014,05,06,05,17,5.60
2014,05,06,05,18,5.60
2014,05,06,05,19,5.60
2014,05,06,05,20,5.60
2014,05,06,05,21,5.60
2014,05,06,05,22,5.60
2014,05,06,05,23,5.60
2014,05,06,05,24,5.60
2014,05,06,05,25,5.60
2014,05,06,05,26,5.50
2014,05,06,05,27,5.50
2014,05,06,05,28,5.50
2014,05,06,05,29,5.50
2014,05,06,05,30,5.50
2014,05,06,05,31,5.50
2014,05,06,05,32,5.50
2014,05,06,05,33,5.40
2014,05,06,05,34,5.40
2014,05,06,05,35,5.40
2014,05,06,05,36,5.40
2014,05,06,05,37,5.40
2014,05,06,05,38,5.40
2014,05,06,05,39,5.40
2014,05,06,05,40,5.40
2014,05,06,05,41,5.40
2014,05,06,05,42,5.40
2014,05,06,05,43,5.40
2014,05,06,05,44,5.40
2014,05,06,05,45,5.40
2014,05,06,05,46,5.40
2014,05,06,05,47,5.40
2014,05,06,05,48,5.30
2014,05,06,05,49,5.30
2014,05,06,05,50,5.30
2014,05,06,05,51,5.30
2014,05,06,05,52,5.30
2014,05,06,05,53,5.30
2014,05,06,05,54,5.30
2014,05,06,05,55,5.30
2014,05,06,05,56,5.30
2014,05,06,05,57,5.30
2014,05,06,05,58,5.30
2014,05,06,05,59,5.30
2014,05,06,06,00,5.30
2014,05,06,06,01,5.30
2014,05,06,06,02,5.30
2014,05,06,06,03,5.30
2014,05,06,06,04,5.30
2014,05,06,06,05,5.30
2014,05,06,06,06,5.20
2014,05,06,06,07,5.20
2014,05,06,06,08,5.20
2014,05,06,06,09,5.20
2014,05,06,06,10,5.20
2014,05,06,06,11,5.30
2014,05,06,06,12,5.30
2014,05,06,06,13,5.30
2014,05,06,06,14,5.30
2014,05,06,06,15,5.20
2014,05,06,06,16,5.30
2014,05,06,06,17,5.30
2014,05,06,06,18,5.30
2014,05,06,06,19,5.30
2014,05,06,06,20,5.30
2014,05,06,06,21,5.30
2014,05,06,06,22,5.30
2014,05,06,06,23,5.30
2014,05,06,06,24,5.30
2014,05,06,06,25,5.30
2014,05,06,06,26,5.30
2014,05,06,06,27,5.30
2014,05,06,06,28,5.40
2014,05,06,06,29,5.40
2014,05,06,06,30,5.40
2014,05,06,06,31,5.40
2014,05,06,06,32,5.40
2014,05,06,06,33,5.50
2014,05,06,06,34,5.50
2014,05,06,06,35,5.50
2014,05,06,06,36,5.50
2014,05,06,06,37,5.60
2014,05,06,06,38,5.60
2014,05,06,06,39,5.60
2014,05,06,06,40,5.60
2014,05,06,06,41,5.70
2014,05,06,06,42,5.70
2014,05,06,06,43,5.80
2014,05,06,06,44,5.80
2014,05,06,06,45,5.80
2014,05,06,06,46,5.80
2014,05,06,06,47,5.90
2014,05,06,06,48,5.90
2014,05,06,06,49,5.90
2014,05,06,06,50,6.00
2014,05,06,06,51,6.00
2014,05,06,06,52,6.00
2014,05,06,06,53,6.00
2014,05,06,06,54,6.00
2014,05,06,06,55,6.10
2014,05,06,06,56,6.10
2014,05,06,06,57,6.10
2014,05,06,06,58,6.10
2014,05,06,06,59,6.10
2014,05,06,07,00,6.10
2014,05,06,07,01,6.10
2014,05,06,07,02,6.10
2014,05,06,07,03,6.10
2014,05,06,07,04,6.10
2014,05,06,07,05,6.20
2014,05,06,07,06,6.20
2014,05,06,07,07,6.20
2014,05,06,07,08,6.30
2014,05,06,07,09,6.30
2014,05,06,07,10,6.30
2014,05,06,07,11,6.40
2014,05,06,07,12,6.40
2014,05,06,07,13,6.40
2014,05,06,07,14,6.40
2014,05,06,07,15,6.50
2014,05,06,07,16,6.50
2014,05,06,07,17,6.60
2014,05,06,07,18,6.60
2014,05,06,07,19,6.60
2014,05,06,07,20,6.70
2014,05,06,07,21,6.70
2014,05,06,07,22,6.80
2014,05,06,07,23,6.80
2014,05,06,07,24,6.90
2014,05,06,07,25,6.90
2014,05,06,07,26,7.00
2014,05,06,07,27,7.10
2014,05,06,07,28,7.20
2014,05,06,07,29,7.30
2014,05,06,07,30,7.30
2014,05,06,07,31,7.40
2014,05,06,07,32,7.50
2014,05,06,07,33,7.60
2014,05,06,07,34,7.60
2014,05,06,07,35,7.70
2014,05,06,07,36,7.80
2014,05,06,07,37,7.80
2014,05,06,07,38,7.90
2014,05,06,07,39,8.00
2014,05,06,07,40,8.10
2014,05,06,07,41,8.20
2014,05,06,07,42,8.20
2014,05,06,07,43,8.30
2014,05,06,07,44,8.40
2014,05,06,07,45,8.40
2014,05,06,07,46,8.50
2014,05,06,07,47,8.50
2014,05,06,07,48,8.60
2014,05,06,07,49,8.60
2014,05,06,07,50,8.70
2014,05,06,07,51,8.70
2014,05,06,07,52,8.70
2014,05,06,07,53,8.80
2014,05,06,07,54,8.80
2014,05,06,07,55,8.80
2014,05,06,07,56,8.90
2014,05,06,07,57,8.90
2014,05,06,07,58,8.90
2014,05,06,07,59,8.90
2014,05,06,08,00,9.00
2014,05,06,08,01,9.00
2014,05,06,08,02,9.00
2014,05,06,08,03,9.10
2014,05,06,08,04,9.10
2014,05,06,08,05,9.10
2014,05,06,08,06,9.10
2014,05,06,08,07,9.10
2014,05,06,08,08,9.20
2014,05,06,08,09,9.20
2014,05,06,08,10,9.20
2014,05,06,08,11,9.20
2014,05,06,08,12,9.30
2014,05,06,08,13,9.30
2014,05,06,08,14,9.30
2014,05,06,08,15,9.40
2014,05,06,08,16,9.40
2014,05,06,08,17,9.40
2014,05,06,08,18,9.50
2014,05,06,08,19,9.50
2014,05,06,08,20,9.60
2014,05,06,08,21,9.60
2014,05,06,08,22,9.60
2014,05,06,08,23,9.60
2014,05,06,08,24,9.70
2014,05,06,08,25,9.70
2014,05,06,08,26,9.70
2014,05,06,08,27,9.80
2014,05,06,08,28,9.80
2014,05,06,08,29,9.80
2014,05,06,08,30,9.80
2014,05,06,08,31,9.90
2014,05,06,08,32,9.90
2014,05,06,08,33,9.90
2014,05,06,08,34,9.90
2014,05,06,08,35,10.00
2014,05,06,08,36,10.00
2014,05,06,08,37,10.10
2014,05,06,08,38,10.10
2014,05,06,08,39,10.10
2014,05,06,08,40,10.20
2014,05,06,08,41,10.20
2014,05,06,08,42,10.30
2014,05,06,08,43,10.30
2014,05,06,08,44,10.30
2014,05,06,08,45,10.30
2014,05,06,08,46,10.40
2014,05,06,08,47,10.40
2014,05,06,08,48,10.50
2014,05,06,08,49,10.50
2014,05,06,08,50,10.50
2014,05,06,08,51,10.60
2014,05,06,08,52,10.60
2014,05,06,08,53,10.70
2014,05,06,08,54,10.70
2014,05,06,08,55,10.70
2014,05,06,08,56,10.80
2014,05,06,08,57,10.80
2014,05,06,08,58,10.80
2014,05,06,08,59,10.80
2014,05,06,09,00,10.80
2014,05,06,09,01,10.80
2014,05,06,09,02,10.90
2014,05,06,09,03,11.00
2014,05,06,09,04,11.00
2014,05,06,09,05,11.00
2014,05,06,09,06,11.00
2014,05,06,09,07,11.00
2014,05,06,09,08,11.00
2014,05,06,09,09,11.10
2014,05,06,09,10,11.10
2014,05,06,09,11,11.10
2014,05,06,09,12,11.10
2014,05,06,09,13,11.20
2014,05,06,09,14,11.20
2014,05,06,09,15,11.30
2014,05,06,09,16,11.30
2014,05,06,09,17,11.40
2014,05,06,09,18,11.50
2014,05,06,09,19,11.50
2014,05,06,09,20,11.60
2014,05,06,09,21,11.60
2014,05,06,09,22,11.50
2014,05,06,09,23,11.50
2014,05,06,09,24,11.40
2014,05,06,09,25,11.40
2014,05,06,09,26,11.40
2014,05,06,09,27,11.40
2014,05,06,09,28,11.30
2014,05,06,09,29,11.30
2014,05,06,09,30,11.30
2014,05,06,09,31,11.30
2014,05,06,09,32,11.30
2014,05,06,09,33,11.40
2014,05,06,09,34,11.40
2014,05,06,09,35,11.40
2014,05,06,09,36,11.40
2014,05,06,09,37,11.40
2014,05,06,09,38,11.40
2014,05,06,09,39,11.40
2014,05,06,09,40,11.40
2014,05,06,09,41,11.40
2014,05,06,09,42,11.40
2014,05,06,09,43,11.40
2014,05,06,09,44,11.50
2014,05,06,09,45,11.50
2014,05,06,09,46,11.60
2014,05,06,09,47,11.60
2014,05,06,09,48,11.70
2014,05,06,09,49,11.70
2014,05,06,09,50,11.70
2014,05,06,09,51,11.70
2014,05,06,09,52,11.80
2014,05,06,09,53,11.80
2014,05,06,09,54,11.90
2014,05,06,09,55,11.90
2014,05,06,09,56,11.90
2014,05,06,09,57,12.00
2014,05,06,09,58,12.00
2014,05,06,09,59,12.00
2014,05,06,10,00,12.00
2014,05,06,10,01,12.10
2014,05,06,10,02,12.10
2014,05,06,10,03,12.20
2014,05,06,10,04,12.20
2014,05,06,10,05,12.40
2014,05,06,10,06,12.50
2014,05,06,10,07,12.60
2014,05,06,10,08,12.60
2014,05,06,10,09,12.50
2014,05,06,10,10,12.40
2014,05,06,10,11,12.40
2014,05,06,10,12,12.40
2014,05,06,10,13,12.50
2014,05,06,10,14,12.50
2014,05,06,10,15,12.60
2014,05,06,10,16,12.70
2014,05,06,10,17,12.70
2014,05,06,10,18,12.70
2014,05,06,10,19,12.70
2014,05,06,10,20,12.60
2014,05,06,10,21,12.60
2014,05,06,10,22,12.50
2014,05,06,10,23,12.50
2014,05,06,10,24,12.50
2014,05,06,10,25,12.50
2014,05,06,10,26,12.50
2014,05,06,10,27,12.60
2014,05,06,10,28,12.70
2014,05,06,10,29,12.70
2014,05,06,10,30,12.90
2014,05,06,10,31,13.00
2014,05,06,10,32,13.10
2014,05,06,10,33,13.20
2014,05,06,10,34,13.30
2014,05,06,10,35,13.30
2014,05,06,10,36,13.40
2014,05,06,10,37,13.40
2014,05,06,10,38,13.40
2014,05,06,10,39,13.50
2014,05,06,10,40,13.50
2014,05,06,10,41,13.60
2014,05,06,10,42,13.70
2014,05,06,10,43,13.80
2014,05,06,10,44,13.80
2014,05,06,10,45,13.90
2014,05,06,10,46,13.90
2014,05,06,10,47,13.90
2014,05,06,10,48,13.90
2014,05,06,10,49,13.90
2014,05,06,10,50,13.90
2014,05,06,10,51,14.00
2014,05,06,10,52,14.00
2014,05,06,10,53,14.00
2014,05,06,10,54,14.00
2014,05,06,10,55,14.10
2014,05,06,10,56,14.10
2014,05,06,10,57,14.00
2014,05,06,10,58,14.00
2014,05,06,10,59,14.00
2014,05,06,11,00,14.00
2014,05,06,11,01,14.10
2014,05,06,11,02,14.10
2014,05,06,11,03,14.10
2014,05,06,11,04,14.00
2014,05,06,11,05,14.00
2014,05,06,11,06,13.90
2014,05,06,11,07,13.90
2014,05,06,11,08,13.90
2014,05,06,11,09,13.90
2014,05,06,11,10,13.80
2014,05,06,11,11,13.80
2014,05,06,11,12,13.80
2014,05,06,11,13,13.90
2014,05,06,11,14,13.80
2014,05,06,11,15,13.90
2014,05,06,11,16,13.90
2014,05,06,11,17,14.00
2014,05,06,11,18,14.00
2014,05,06,11,19,14.10
2014,05,06,11,20,14.10
2014,05,06,11,21,14.20
2014,05,06,11,22,14.20
2014,05,06,11,23,14.20
2014,05,06,11,24,14.30
2014,05,06,11,25,14.30
2014,05,06,11,26,14.30
2014,05,06,11,27,14.30
2014,05,06,11,28,14.20
2014,05,06,11,29,14.20
2014,05,06,11,30,14.20
2014,05,06,11,31,14.20
2014,05,06,11,32,14.30
2014,05,06,11,33,14.40
2014,05,06,11,34,14.40
2014,05,06,11,35,14.40
2014,05,06,11,36,14.40
2014,05,06,11,37,14.30
2014,05,06,11,38,14.30
2014,05,06,11,39,14.20
2014,05,06,11,40,14.20
2014,05,06,11,41,14.20
2014,05,06,11,42,14.30
2014,05,06,11,43,14.30
2014,05,06,11,44,14.40
2014,05,06,11,45,14.40
2014,05,06,11,46,14.40
2014,05,06,11,47,14.40
2014,05,06,11,48,14.40
2014,05,06,11,49,14.50
2014,05,06,11,50,14.60
2014,05,06,11,51,14.70
2014,05,06,11,52,14.80
2014,05,06,11,53,14.90
2014,05,06,11,54,15.10
2014,05,06,11,55,15.20
2014,05,06,11,56,15.20
2014,05,06,11,57,15.20
2014,05,06,11,58,15.20
2014,05,06,11,59,15.20
2014,05,06,12,00,15.30
2014,05,06,12,01,15.30
2014,05,06,12,02,15.40
2014,05,06,12,03,15.50
2014,05,06,12,04,15.60
2014,05,06,12,05,15.70
2014,05,06,12,06,15.70
2014,05,06,12,07,15.70
2014,05,06,12,08,15.70
2014,05,06,12,09,15.70
2014,05,06,12,10,15.70
2014,05,06,12,11,15.70
2014,05,06,12,12,15.60
2014,05,06,12,13,15.50
2014,05,06,12,14,15.50
2014,05,06,12,15,15.50
2014,05,06,12,16,15.60
2014,05,06,12,17,15.60
2014,05,06,12,18,15.50
2014,05,06,12,19,15.40
2014,05,06,12,20,15.40
2014,05,06,12,21,15.40
2014,05,06,12,22,15.40
2014,05,06,12,23,15.30
2014,05,06,12,24,15.30
2014,05,06,12,25,15.30
2014,05,06,12,26,15.20
2014,05,06,12,27,15.20
2014,05,06,12,28,15.20
2014,05,06,12,29,15.20
2014,05,06,12,30,15.20
2014,05,06,12,31,15.20
2014,05,06,12,32,15.20
2014,05,06,12,33,15.20
2014,05,06,12,34,15.30
2014,05,06,12,35,15.30
2014,05,06,12,36,15.40
2014,05,06,12,37,15.40
2014,05,06,12,38,15.50
2014,05,06,12,39,15.50
2014,05,06,12,40,15.60
2014,05,06,12,41,15.60
2014,05,06,12,42,15.70
2014,05,06,12,43,15.80
2014,05,06,12,44,15.90
2014,05,06,12,45,15.90
2014,05,06,12,46,15.90
2014,05,06,12,47,15.90
2014,05,06,12,48,15.80
2014,05,06,12,49,15.80
2014,05,06,12,50,15.70
2014,05,06,12,51,15.60
2014,05,06,12,52,15.60
2014,05,06,12,53,15.60
2014,05,06,12,54,15.50
2014,05,06,12,55,15.50
2014,05,06,12,56,15.50
2014,05,06,12,57,15.60
2014,05,06,12,58,15.60
2014,05,06,12,59,15.70
2014,05,06,13,00,15.70
2014,05,06,13,01,15.80
2014,05,06,13,02,15.90
2014,05,06,13,03,15.90
2014,05,06,13,04,16.00
2014,05,06,13,05,16.10
2014,05,06,13,06,16.20
2014,05,06,13,07,16.30
2014,05,06,13,08,16.40
2014,05,06,13,09,16.50
2014,05,06,13,10,16.50
2014,05,06,13,11,16.50
2014,05,06,13,12,16.50
2014,05,06,13,13,16.50
2014,05,06,13,14,16.60
2014,05,06,13,15,16.60
2014,05,06,13,16,16.70
2014,05,06,13,17,16.70
2014,05,06,13,18,16.80
2014,05,06,13,19,16.80
2014,05,06,13,20,16.90
2014,05,06,13,21,17.00
2014,05,06,13,22,17.00
2014,05,06,13,23,17.10
2014,05,06,13,24,17.10
2014,05,06,13,25,17.20
2014,05,06,13,26,17.20
2014,05,06,13,27,17.20
2014,05,06,13,28,17.20
2014,05,06,13,29,17.20
2014,05,06,13,30,17.20
2014,05,06,13,31,17.20
2014,05,06,13,32,17.20
2014,05,06,13,33,17.20
2014,05,06,13,34,17.20
2014,05,06,13,35,17.30
2014,05,06,13,36,17.30
2014,05,06,13,37,17.30
2014,05,06,13,38,17.30
2014,05,06,13,39,17.20
2014,05,06,13,40,17.10
2014,05,06,13,41,17.00
2014,05,06,13,42,16.90
2014,05,06,13,43,16.80
2014,05,06,13,44,16.70
2014,05,06,13,45,16.60
2014,05,06,13,46,16.60
2014,05,06,13,47,16.60
2014,05,06,13,48,16.50
2014,05,06,13,49,16.40
2014,05,06,13,50,16.30
2014,05,06,13,51,16.30
2014,05,06,13,52,16.20
2014,05,06,13,53,16.30
2014,05,06,13,54,16.30
2014,05,06,13,55,16.30
2014,05,06,13,56,16.30
2014,05,06,13,57,16.30
2014,05,06,13,58,16.20
2014,05,06,13,59,16.20
2014,05,06,14,00,16.20
2014,05,06,14,01,16.20
2014,05,06,14,02,16.20
2014,05,06,14,03,16.20
2014,05,06,14,04,16.10
2014,05,06,14,05,16.20
2014,05,06,14,06,16.20
2014,05,06,14,07,16.30
2014,05,06,14,08,16.30
2014,05,06,14,09,16.30
2014,05,06,14,10,16.30
2014,05,06,14,11,16.30
2014,05,06,14,12,16.30
2014,05,06,14,13,16.40
2014,05,06,14,14,16.40
2014,05,06,14,15,16.40
2014,05,06,14,16,16.40
2014,05,06,14,17,16.40
2014,05,06,14,18,16.50
2014,05,06,14,19,16.50
2014,05,06,14,20,16.50
2014,05,06,14,21,16.50
2014,05,06,14,22,16.40
2014,05,06,14,23,16.30
2014,05,06,14,24,16.20
2014,05,06,14,25,16.20
2014,05,06,14,26,16.20
2014,05,06,14,27,16.30
2014,05,06,14,28,16.30
2014,05,06,14,29,16.20
2014,05,06,14,30,16.20
2014,05,06,14,31,16.20
2014,05,06,14,32,16.20
2014,05,06,14,33,16.20
2014,05,06,14,34,16.20
2014,05,06,14,35,16.20
2014,05,06,14,36,16.20
2014,05,06,14,37,16.20
2014,05,06,14,38,16.20
2014,05,06,14,39,16.20
2014,05,06,14,40,16.30
2014,05,06,14,41,16.30
2014,05,06,14,42,16.30
2014,05,06,14,43,16.30
2014,05,06,14,44,16.40
2014,05,06,14,45,16.40
2014,05,06,14,46,16.40
2014,05,06,14,47,16.30
2014,05,06,14,48,16.40
2014,05,06,14,49,16.40
2014,05,06,14,50,16.50
2014,05,06,14,51,16.50
2014,05,06,14,52,16.50
2014,05,06,14,53,16.60
2014,05,06,14,54,16.60
2014,05,06,14,55,16.60
2014,05,06,14,56,16.60
2014,05,06,14,57,16.60
2014,05,06,14,58,16.50
2014,05,06,14,59,16.50
2014,05,06,15,00,16.40
2014,05,06,15,01,16.40
2014,05,06,15,02,16.40
2014,05,06,15,03,16.30
2014,05,06,15,04,16.30
2014,05,06,15,05,16.30
2014,05,06,15,06,16.30
2014,05,06,15,07,16.30
2014,05,06,15,08,16.30
2014,05,06,15,09,16.30
2014,05,06,15,10,16.40
2014,05,06,15,11,16.40
2014,05,06,15,12,16.50
2014,05,06,15,13,16.50
2014,05,06,15,14,16.60
2014,05,06,15,15,16.70
2014,05,06,15,16,16.70
2014,05,06,15,17,16.80
2014,05,06,15,18,16.80
2014,05,06,15,19,16.90
2014,05,06,15,20,17.00
2014,05,06,15,21,17.10
2014,05,06,15,22,17.10
2014,05,06,15,23,17.20
2014,05,06,15,24,17.30
2014,05,06,15,25,17.40
2014,05,06,15,26,17.40
2014,05,06,15,27,17.40
2014,05,06,15,28,17.50
2014,05,06,15,29,17.50
2014,05,06,15,30,17.50
2014,05,06,15,31,17.60
2014,05,06,15,32,17.60
2014,05,06,15,33,17.60
2014,05,06,15,34,17.60
2014,05,06,15,35,17.70
2014,05,06,15,36,17.70
2014,05,06,15,37,17.80
2014,05,06,15,38,17.80
2014,05,06,15,39,17.90
2014,05,06,15,40,17.90
2014,05,06,15,41,17.90
2014,05,06,15,42,17.90
2014,05,06,15,43,17.90
2014,05,06,15,44,18.00
2014,05,06,15,45,18.10
2014,05,06,15,46,18.20
2014,05,06,15,47,18.30
2014,05,06,15,48,18.30
2014,05,06,15,49,18.30
2014,05,06,15,50,18.30
2014,05,06,15,51,18.30
2014,05,06,15,52,18.30
2014,05,06,15,53,18.30
2014,05,06,15,54,18.20
2014,05,06,15,55,18.20
2014,05,06,15,56,18.10
2014,05,06,15,57,18.10
2014,05,06,15,58,18.00
2014,05,06,15,59,18.00
2014,05,06,16,00,17.90
2014,05,06,16,01,17.90
2014,05,06,16,02,17.90
2014,05,06,16,03,17.90
2014,05,06,16,04,17.90
2014,05,06,16,05,17.90
2014,05,06,16,06,18.00
2014,05,06,16,07,18.10
2014,05,06,16,08,18.20
2014,05,06,16,09,18.30
2014,05,06,16,10,18.40
2014,05,06,16,11,18.60
2014,05,06,16,12,18.70
2014,05,06,16,13,18.70
2014,05,06,16,14,18.80
2014,05,06,16,15,18.80
2014,05,06,16,16,18.80
2014,05,06,16,17,18.80
2014,05,06,16,18,18.80
2014,05,06,16,19,18.80
2014,05,06,16,20,18.90
2014,05,06,16,21,18.90
2014,05,06,16,22,19.00
2014,05,06,16,23,19.00
2014,05,06,16,24,19.10
2014,05,06,16,25,19.20
2014,05,06,16,26,19.30
2014,05,06,16,27,19.30
2014,05,06,16,28,19.30
2014,05,06,16,29,19.20
2014,05,06,16,30,19.20
2014,05,06,16,31,19.10
2014,05,06,16,32,19.10
2014,05,06,16,33,19.00
2014,05,06,16,34,18.90
2014,05,06,16,35,18.80
2014,05,06,16,36,18.80
2014,05,06,16,37,18.90
2014,05,06,16,38,19.00
2014,05,06,16,39,19.00
2014,05,06,16,40,19.10
2014,05,06,16,41,19.20
2014,05,06,16,42,19.20
2014,05,06,16,43,19.30
2014,05,06,16,44,19.30
2014,05,06,16,45,19.30
2014,05,06,16,46,19.20
2014,05,06,16,47,19.20
2014,05,06,16,48,19.10
2014,05,06,16,49,19.00
2014,05,06,16,50,19.00
2014,05,06,16,51,18.90
2014,05,06,16,52,18.90
2014,05,06,16,53,18.70
2014,05,06,16,54,18.70
2014,05,06,16,55,18.60
2014,05,06,16,56,18.60
2014,05,06,16,57,18.60
2014,05,06,16,58,18.60
2014,05,06,16,59,18.70
2014,05,06,17,00,18.80
2014,05,06,17,01,18.90
2014,05,06,17,02,19.00
2014,05,06,17,03,19.10
2014,05,06,17,04,19.10
2014,05,06,17,05,19.20
2014,05,06,17,06,19.20
2014,05,06,17,07,19.20
2014,05,06,17,08,19.10
2014,05,06,17,09,19.10
2014,05,06,17,10,19.00
2014,05,06,17,11,18.90
2014,05,06,17,12,18.90
2014,05,06,17,13,18.80
2014,05,06,17,14,18.80
2014,05,06,17,15,18.90
2014,05,06,17,16,18.90
2014,05,06,17,17,18.90
2014,05,06,17,18,18.80
2014,05,06,17,19,18.70
2014,05,06,17,20,18.70
2014,05,06,17,21,18.70
2014,05,06,17,22,18.70
2014,05,06,17,23,18.70
2014,05,06,17,24,18.70
2014,05,06,17,25,18.80
2014,05,06,17,26,18.80
2014,05,06,17,27,18.90
2014,05,06,17,28,19.00
2014,05,06,17,29,19.10
2014,05,06,17,30,19.10
2014,05,06,17,31,19.20
2014,05,06,17,32,19.30
2014,05,06,17,33,19.40
2014,05,06,17,34,19.50
2014,05,06,17,35,19.60
2014,05,06,17,36,19.60
2014,05,06,17,37,19.60
2014,05,06,17,38,19.50
2014,05,06,17,39,19.50
2014,05,06,17,40,19.40
2014,05,06,17,41,19.40